DELTA 1 DEB, 2154

Orbit data source: Space-Track

DELTA 1 DEB, 2154 is space debris in SSO originally from a launch on Thu, 03 Feb 1966 UTC launched from the Air Force Eastern Test Range (AFETR). Debris objects in space refer to the collection of defunct objects orbiting the Earth. Examples of debris include non-operational satellites, rocket bodies, and fragments generated from explosions, collisions, or faulty payload assembly.

Loading next visibility...
Identifier
2154, 1966-008E
Orbit
SSO
Country
Flag of USUS
Related business
Manufacturer
Unknown
Mission
Spacecraft
Bus & Motor
Unknown
Mass
Unknown
Launch date (UTC)
1966-02-03 (60 years ago)
Launch vehicle
Unknown
Launch site
Air Force Eastern Test Range (AFETR)
Object type
Payload
Rocket body
Debris
Shape & HBR
Unknown shape, 0.1 m
Radar Cross Section
Small (<0.1 m²)

Expand to show TLE details & history
Last TLE update: 10 hours ago

TLE from 10 hours ago
0 DELTA 1 DEB
1  2154U 66008E   26062.30783975  .00001762  00000-0  28731-3 0  9990
2  2154  97.8596 181.9667 0045150 287.5302  72.0975 14.71539027163445
Epoch: 2026-03-03T07:23Z
TLE epoch observation values (Epoch: 2026-03-03T07:23:17.354Z)
Latitude
0.00002°
Longitude
-89.94438°
Altitude
649.536 km
Speed
7.538 km/s
True Right ascension
12h 07m 52s
True Declination
0° 00' 00"
Sunlit
Object was in full shadow at epoch
Visualization orbit readout
Latitude
Unknown
Longitude
Unknown
Altitude
Unknown
Speed
Unknown
Apparent Right ascension
Unknown
Apparent Declination
Unknown
Sunlit
N/A
Visualization observer readout
Local Sidereal Time
21:18:49
Azimuth
Unknown
Elevation
Unknown
Doppler factor
Unknown
Orbital elements
Apogee altitude
684.956 km
Perigee altitude
621.463 km
Semi-major axis
7,031.346 km
Eccentricity
0.00452
Inclination
97.8596°
RAAN
181.9667°
Arg. of periapsis
287.5302°
True anomaly
72.59068°
Mean anomaly
72.0975°
Eccentric anomaly
72.344°
Mean motion
3.68117 °/min
Orbital period
97.8 mins
BSTAR
0.00028731
Loading maneuver chart data...
Computing Atmospheric mass density...
Loading historical data...
Loading historical data...
Loading historical data...
Loading historical data...
Loading historical data...
Loading historical data...
Loading historical data...
Other satellites on launch #8 in the year 1966 (1966-02-03 UTC)

Documentation

Showing up to 5 results
|